SPACEMOBILE-003

Last updated on Sat Aug 15 2026 00:02:08 GMT+0000 (Coordinated Universal Time)

1 61045U 24163A 26226.44577163 .00000152 00000+0 21453-4 0 9993 2 61045 52.9766 41.5481 0003059 310.8811 49.1918 15.20681422106634
UTC large
Height (km)
Speed (km/s)
/
Latitude / Longitude
Inclination (degrees)
Orbital Period (minutes)
Azimuth
Elevation
Range (km)
Doppler Factor

Next 0 passes for location: London (51.5072 / 0.1276)

No passes found over London.
SPACEMOBILE-003